QPF
0.09 0.09 0.05 0.02 0.01 0.00 0.00 0.00 0.00 0.00 0.00 0.00 0.00 0.00 0.00 0.00 0.00 0.00 0.00 0.00 0.00 0.00 0.00 0.00 0.00 0.00 0.00 0.00 0.00 0.00 0.00 0.00 0.00 0.00 0.00 0.00 0.00 0.00 0.00 0.00 0.00 0.00 0.00 0.00
0.10 0.06 0.01 0.01 0.02 0.02 0.01 0.01 0.00 0.00 0.00 0.00 0.00 0.00 0.00 0.00 0.00 0.00 0.00 0.00 0.00 0.00 0.00 0.00 0.00 0.00 0.00 0.00 0.00 0.00 0.00 0.00 0.00 0.00 0.00 0.00 0.00 0.00 0.00 0.00 0.00 0.00 0.00 0.00
0.04 0.02 0.01 0.03 0.03 0.04 0.02 0.01 0.00 0.00 0.00 0.00 0.00 0.00 0.00 0.00 0.00 0.00 0.00 0.00 0.00 0.00 0.00 0.00 0.00 0.00 0.00 0.00 0.00 0.00 0.00 0.00 0.00 0.00 0.00 0.00 0.00 0.00 0.00 0.00 0.00 0.00 0.00 0.00
0.03 0.01 0.03 0.03 0.02 0.02 0.02 0.01 0.01 0.02 0.02 0.02 0.01 0.01 0.00 0.00 0.00 0.00 0.00 0.00 0.00 0.00 0.00 0.00 0.00 0.00 0.00 0.00 0.00 0.00 0.00 0.00 0.00 0.00 0.00 0.00 0.00 0.00 0.00 0.00 0.00 0.00 0.00 0.00
0.04 0.02 0.03 0.03 0.01 0.01 0.01 0.01 0.02 0.04 0.05 0.05 0.02 0.01 0.00 0.00 0.00 0.00 0.00 0.00 0.00 0.00 0.00 0.00 0.00 0.00 0.00 0.00 0.00 0.00 0.00 0.00 0.00 0.00 0.00 0.00 0.00 0.00 0.00 0.00 0.00 0.00 0.00 0.00
0.03 0.03 0.03 0.02 0.01 0.03 0.03 0.04 0.06 0.08 0.11 0.12 0.04 0.02 0.01 0.00 0.00 0.00 0.00 0.00 0.00 0.00 0.00 0.00 0.00 0.00 0.00 0.00 0.00 0.00 0.00 0.00 0.00 0.00 0.00 0.00 0.00 0.00 0.00 0.00 0.00 0.00 0.00 0.00
0.05 0.04 0.04 0.03 0.04 0.05 0.07 0.10 0.15 0.18 0.19 0.11 0.02 0.02 0.01 0.00 0.00 0.00 0.00 0.00 0.00 0.00 0.00 0.00 0.00 0.00 0.00 0.00 0.00 0.00 0.00 0.00 0.00 0.00 0.00 0.00 0.00 0.00 0.00 0.00 0.00 0.00 0.00 0.00
0.05 0.04 0.03 0.03 0.03 0.03 0.04 0.06 0.10 0.11 0.08 0.04 0.01 0.01 0.00 0.00 0.00 0.00 0.00 0.00 0.00 0.00 0.00 0.00 0.00 0.00 0.00 0.00 0.00 0.00 0.00 0.00 0.00 0.00 0.00 0.00 0.00 0.00 0.00 0.00 0.00 0.00 0.00 0.00
0.02 0.02 0.01 0.01 0.02 0.03 0.04 0.05 0.04 0.06 0.05 0.03 0.02 0.00 0.00 0.00 0.00 0.00 0.00 0.00 0.00 0.00 0.00 0.00 0.00 0.00 0.00 0.00 0.00 0.00 0.00 0.00 0.00 0.00 0.00 0.00 0.00 0.00 0.00 0.00 0.00 0.00 0.00 0.00
0.02 0.02 0.01 0.01 0.05 0.07 0.06 0.07 0.08 0.12 0.12 0.07 0.02 0.00 0.00 0.00 0.00 0.00 0.00 0.00 0.00 0.00 0.00 0.00 0.00 0.00 0.00 0.00 0.00 0.00 0.00 0.00 0.00 0.00 0.00 0.00 0.00 0.00 0.00 0.00 0.00 0.00 0.00 0.00
0.04 0.04 0.02 0.04 0.05 0.05 0.06 0.09 0.11 0.12 0.10 0.05 0.02 0.00 0.00 0.00 0.00 0.00 0.00 0.00 0.00 0.00 0.00 0.00 0.00 0.00 0.00 0.00 0.00 0.00 0.00 0.00 0.00 0.00 0.00 0.00 0.00 0.00 0.00 0.00 0.00 0.00 0.00 0.00
0.05 0.06 0.05 0.04 0.04 0.04 0.06 0.06 0.07 0.11 0.11 0.05 0.02 0.00 0.00 0.00 0.00 0.00 0.00 0.00 0.00 0.00 0.00 0.00 0.00 0.00 0.00 0.00 0.00 0.00 0.00 0.00 0.00 0.00 0.00 0.00 0.00 0.00 0.00 0.00 0.00 0.00 0.00 0.00
0.07 0.11 0.12 0.11 0.09 0.08 0.09 0.06 0.06 0.07 0.08 0.07 0.04 0.01 0.00 0.00 0.00 0.00 0.00 0.00 0.00 0.00 0.00 0.00 0.00 0.00 0.00 0.00 0.00 0.00 0.00 0.00 0.00 0.00 0.00 0.00 0.00 0.00 0.00 0.00 0.00 0.00 0.00 0.00
0.10 0.12 0.10 0.07 0.04 0.05 0.06 0.05 0.06 0.09 0.12 0.08 0.03 0.01 0.00 0.00 0.00 0.00 0.00 0.00 0.00 0.00 0.00 0.00 0.00 0.00 0.00 0.00 0.00 0.00 0.00 0.00 0.00 0.00 0.00 0.00 0.00 0.00 0.00 0.00 0.00 0.00 0.00 0.00
0.14 0.10 0.06 0.05 0.03 0.04 0.05 0.05 0.06 0.09 0.08 0.07 0.03 0.01 0.01 0.00 0.00 0.00 0.00 0.00 0.00 0.00 0.00 0.00 0.00 0.00 0.00 0.00 0.00 0.00 0.00 0.00 0.00 0.00 0.00 0.00 0.00 0.00 0.00 0.00 0.00 0.00 0.00 0.00
0.13 0.11 0.06 0.04 0.03 0.04 0.06 0.06 0.07 0.08 0.08 0.05 0.03 0.01 0.01 0.00 0.00 0.00 0.00 0.00 0.00 0.00 0.00 0.00 0.00 0.00 0.00 0.00 0.00 0.00 0.00 0.00 0.00 0.00 0.00 0.00 0.00 0.00 0.00 0.00 0.00 0.00 0.00 0.00
0.09 0.11 0.11 0.07 0.03 0.06 0.07 0.03 0.03 0.03 0.04 0.04 0.04 0.02 0.01 0.01 0.00 0.00 0.00 0.00 0.00 0.00 0.00 0.00 0.00 0.00 0.00 0.00 0.00 0.00 0.00 0.00 0.00 0.00 0.00 0.00 0.00 0.00 0.00 0.00 0.00 0.00 0.00 0.00
0.07 0.08 0.10 0.09 0.08 0.12 0.04 0.00 0.00 0.01 0.01 0.01 0.01 0.02 0.01 0.01 0.01 0.01 0.00 0.00 0.00 0.00 0.00 0.01 0.00 0.00 0.00 0.00 0.00 0.00 0.00 0.00 0.00 0.00 0.00 0.00 0.00 0.00 0.00 0.00 0.00 0.00 0.00 0.00
0.06 0.07 0.10 0.10 0.09 0.06 0.02 0.00 0.00 0.00 0.01 0.01 0.01 0.01 0.00 0.00 0.01 0.00 0.00 0.00 0.00 0.00 0.00 0.00 0.00 0.00 0.00 0.00 0.00 0.00 0.00 0.00 0.00 0.00 0.00 0.00 0.00 0.00 0.00 0.00 0.00 0.00 0.00 0.00
0.06 0.07 0.10 0.11 0.10 0.05 0.01 0.00 0.00 0.01 0.02 0.01 0.00 0.00 0.01 0.01 0.01 0.00 0.00 0.00 0.00 0.01 0.00 0.00 0.00 0.00 0.00 0.00 0.00 0.00 0.00 0.00 0.00 0.00 0.00 0.00 0.00 0.00 0.00 0.00 0.00 0.00 0.00 0.00
0.08 0.10 0.10 0.08 0.07 0.03 0.01 0.00 0.01 0.03 0.02 0.01 0.01 0.01 0.01 0.01 0.01 0.01 0.01 0.01 0.00 0.00 0.00 0.00 0.00 0.00 0.00 0.00 0.00 0.00 0.00 0.00 0.00 0.00 0.00 0.00 0.00 0.00 0.00 0.00 0.00 0.00 0.00 0.00
0.04 0.06 0.06 0.04 0.04 0.02 0.00 0.00 0.01 0.01 0.00 0.00 0.01 0.01 0.01 0.02 0.02 0.01 0.01 0.01 0.00 0.00 0.00 0.00 0.00 0.00 0.00 0.00 0.00 0.00 0.00 0.00 0.00 0.00 0.00 0.00 0.00 0.00 0.00 0.00 0.00 0.00 0.00 0.00
0.02 0.02 0.02 0.02 0.01 0.00 0.00 0.00 0.00 0.00 0.00 0.00 0.00 0.00 0.01 0.01 0.01 0.01 0.00 0.00 0.00 0.00 0.00 0.00 0.00 0.00 0.00 0.00 0.00 0.00 0.00 0.00 0.00 0.00 0.00 0.00 0.00 0.00 0.00 0.00 0.00 0.01 0.01 0.01
0.01 0.01 0.02 0.02 0.01 0.01 0.00 0.00 0.00 0.00 0.00 0.00 0.00 0.00 0.00 0.00 0.00 0.00 0.00 0.00 0.00 0.00 0.00 0.00 0.00 0.00 0.00 0.00 0.00 0.00 0.00 0.00 0.00 0.00 0.00 0.00 0.01 0.01 0.01 0.01 0.01 0.01 0.01 0.01
0.02 0.02 0.02 0.02 0.02 0.01 0.01 0.01 0.00 0.00 0.00 0.00 0.00 0.00 0.00 0.00 0.00 0.00 0.00 0.00 0.00 0.00 0.00 0.00 0.00 0.00 0.00 0.00 0.00 0.00 0.00 0.00 0.00 0.01 0.01 0.01 0.01 0.01 0.02 0.02 0.02 0.02 0.02 0.03
0.02 0.02 0.02 0.03 0.03 0.03 0.03 0.03 0.02 0.02 0.02 0.01 0.01 0.01 0.00 0.00 0.00 0.00 0.00 0.00 0.00 0.00 0.00 0.00 0.00 0.00 0.00 0.00 0.00 0.00 0.00 0.00 0.01 0.01 0.01 0.01 0.01 0.02 0.02 0.02 0.03 0.03 0.03 0.03
MSLP
1019.02 1019.26 1019.50 1019.77 1020.09 1020.44 1020.79 1021.10 1021.32 1021.39 1021.29 1021.02 1020.60 1020.07 1019.48 1018.89 1018.34 1017.85 1017.44 1017.07 1016.76 1016.47 1016.22 1016.00 1015.84 1015.76 1015.79 1015.93 1016.18 1016.53 1016.95 1017.39 1017.82 1018.21 1018.53 1018.79 1018.99 1019.14 1019.28 1019.40 1019.53 1019.67 1019.82 1019.98
1018.66 1018.84 1019.03 1019.28 1019.61 1020.02 1020.47 1020.92 1021.28 1021.48 1021.49 1021.28 1020.86 1020.28 1019.60 1018.88 1018.19 1017.57 1017.05 1016.61 1016.24 1015.93 1015.66 1015.43 1015.25 1015.14 1015.12 1015.21 1015.43 1015.76 1016.18 1016.66 1017.15 1017.61 1018.02 1018.36 1018.61 1018.80 1018.93 1019.04 1019.12 1019.21 1019.32 1019.45
1018.29 1018.42 1018.56 1018.79 1019.14 1019.60 1020.14 1020.69 1021.18 1021.49 1021.58 1021.41 1020.98 1020.34 1019.56 1018.72 1017.91 1017.18 1016.56 1016.05 1015.66 1015.34 1015.08 1014.85 1014.67 1014.54 1014.49 1014.54 1014.71 1015.01 1015.42 1015.92 1016.44 1016.96 1017.44 1017.83 1018.14 1018.36 1018.49 1018.58 1018.64 1018.70 1018.77 1018.88
1017.94 1018.03 1018.15 1018.36 1018.71 1019.21 1019.81 1020.45 1021.01 1021.41 1021.55 1021.39 1020.93 1020.23 1019.36 1018.40 1017.48 1016.64 1015.95 1015.41 1015.01 1014.71 1014.48 1014.30 1014.15 1014.03 1013.97 1014.00 1014.14 1014.40 1014.78 1015.25 1015.78 1016.31 1016.81 1017.24 1017.57 1017.80 1017.94 1018.02 1018.06 1018.10 1018.15 1018.23
1017.60 1017.68 1017.78 1017.98 1018.33 1018.85 1019.49 1020.17 1020.78 1021.20 1021.36 1021.19 1020.70 1019.93 1018.97 1017.92 1016.90 1016.00 1015.26 1014.71 1014.34 1014.09 1013.94 1013.84 1013.75 1013.69 1013.66 1013.68 1013.80 1014.01 1014.34 1014.77 1015.25 1015.75 1016.23 1016.64 1016.97 1017.19 1017.32 1017.39 1017.41 1017.42 1017.45 1017.51
1017.24 1017.32 1017.42 1017.62 1017.97 1018.49 1019.13 1019.82 1020.43 1020.86 1021.00 1020.80 1020.27 1019.44 1018.42 1017.30 1016.23 1015.28 1014.54 1014.02 1013.70 1013.55 1013.51 1013.52 1013.54 1013.57 1013.59 1013.64 1013.75 1013.92 1014.19 1014.54 1014.95 1015.37 1015.79 1016.14 1016.42 1016.61 1016.72 1016.76 1016.76 1016.74 1016.74 1016.76
1016.79 1016.89 1017.01 1017.22 1017.56 1018.07 1018.69 1019.36 1019.95 1020.35 1020.46 1020.24 1019.67 1018.81 1017.74 1016.60 1015.52 1014.58 1013.87 1013.40 1013.18 1013.14 1013.23 1013.39 1013.55 1013.69 1013.80 1013.90 1014.01 1014.16 1014.36 1014.62 1014.93 1015.25 1015.56 1015.84 1016.04 1016.17 1016.23 1016.23 1016.19 1016.14 1016.09 1016.07
1016.19 1016.34 1016.48 1016.70 1017.05 1017.54 1018.14 1018.76 1019.31 1019.67 1019.76 1019.51 1018.94 1018.08 1017.03 1015.91 1014.85 1013.96 1013.32 1012.94 1012.82 1012.91 1013.15 1013.45 1013.76 1014.03 1014.24 1014.41 1014.54 1014.68 1014.82 1015.00 1015.20 1015.41 1015.61 1015.78 1015.90 1015.96 1015.95 1015.90 1015.81 1015.71 1015.61 1015.52
1015.43 1015.62 1015.81 1016.06 1016.42 1016.89 1017.45 1018.04 1018.54 1018.87 1018.93 1018.69 1018.14 1017.32 1016.33 1015.28 1014.31 1013.50 1012.95 1012.68 1012.67 1012.88 1013.25 1013.69 1014.13 1014.52 1014.84 1015.08 1015.26 1015.39 1015.51 1015.62 1015.73 1015.84 1015.94 1016.01 1016.04 1016.02 1015.95 1015.84 1015.69 1015.54 1015.37 1015.21
1014.52 1014.78 1015.02 1015.31 1015.68 1016.14 1016.67 1017.21 1017.67 1017.97 1018.04 1017.82 1017.33 1016.60 1015.72 1014.79 1013.93 1013.25 1012.80 1012.63 1012.72 1013.04 1013.51 1014.05 1014.60 1015.10 1015.51 1015.82 1016.04 1016.20 1016.30 1016.38 1016.43 1016.48 1016.50 1016.49 1016.45 1016.37 1016.24 1016.07 1015.88 1015.65 1015.42 1015.17
1013.56 1013.88 1014.18 1014.51 1014.89 1015.35 1015.84 1016.34 1016.77 1017.05 1017.12 1016.96 1016.56 1015.95 1015.21 1014.44 1013.74 1013.19 1012.86 1012.79 1012.96 1013.34 1013.87 1014.48 1015.09 1015.66 1016.13 1016.51 1016.79 1016.98 1017.10 1017.17 1017.22 1017.23 1017.22 1017.17 1017.09 1016.97 1016.80 1016.58 1016.33 1016.05 1015.75 1015.43
1012.64 1013.02 1013.38 1013.75 1014.15 1014.58 1015.04 1015.49 1015.87 1016.13 1016.23 1016.12 1015.83 1015.36 1014.79 1014.19 1013.66 1013.26 1013.05 1013.06 1013.30 1013.72 1014.27 1014.90 1015.54 1016.13 1016.65 1017.08 1017.41 1017.65 1017.81 1017.93 1017.99 1018.02 1018.01 1017.96 1017.87 1017.72 1017.53 1017.28 1017.00 1016.67 1016.30 1015.91
1011.86 1012.30 1012.70 1013.09 1013.48 1013.88 1014.29 1014.67 1015.00 1015.23 1015.33 1015.28 1015.08 1014.76 1014.36 1013.95 1013.59 1013.35 1013.26 1013.36 1013.64 1014.08 1014.64 1015.26 1015.89 1016.50 1017.04 1017.51 1017.89 1018.19 1018.42 1018.59 1018.71 1018.78 1018.81 1018.78 1018.70 1018.56 1018.35 1018.08 1017.76 1017.39 1016.98 1016.54
1011.26 1011.73 1012.16 1012.55 1012.91 1013.25 1013.58 1013.87 1014.11 1014.29 1014.37 1014.36 1014.25 1014.07 1013.83 1013.60 1013.42 1013.34 1013.38 1013.57 1013.90 1014.36 1014.92 1015.53 1016.16 1016.76 1017.32 1017.82 1018.24 1018.61 1018.91 1019.15 1019.34 1019.48 1019.55 1019.56 1019.51 1019.37 1019.16 1018.88 1018.54 1018.14 1017.69 1017.21
1010.81 1011.29 1011.71 1012.07 1012.38 1012.63 1012.85 1013.02 1013.16 1013.25 1013.30 1013.29 1013.25 1013.17 1013.09 1013.03 1013.03 1013.12 1013.30 1013.60 1014.01 1014.52 1015.10 1015.72 1016.34 1016.96 1017.54 1018.07 1018.55 1018.97 1019.34 1019.65 1019.91 1020.10 1020.23 1020.28 1020.24 1020.12 1019.90 1019.61 1019.24 1018.80 1018.33 1017.82
1010.43 1010.88 1011.27 1011.57 1011.79 1011.94 1012.02 1012.06 1012.07 1012.05 1012.03 1012.01 1012.01 1012.02 1012.07 1012.18 1012.36 1012.62 1012.98 1013.42 1013.94 1014.54 1015.17 1015.84 1016.50 1017.14 1017.76 1018.33 1018.85 1019.33 1019.75 1020.12 1020.44 1020.68 1020.84 1020.91 1020.88 1020.75 1020.52 1020.20 1019.80 1019.35 1018.84 1018.32
1010.00 1010.41 1010.73 1010.95 1011.07 1011.09 1011.03 1010.93 1010.80 1010.67 1010.58 1010.53 1010.54 1010.63 1010.80 1011.07 1011.43 1011.88 1012.42 1013.04 1013.72 1014.44 1015.19 1015.94 1016.67 1017.38 1018.04 1018.66 1019.22 1019.74 1020.21 1020.61 1020.95 1021.21 1021.38 1021.45 1021.41 1021.27 1021.01 1020.66 1020.23 1019.73 1019.20 1018.66
1009.42 1009.76 1010.00 1010.13 1010.14 1010.05 1009.87 1009.63 1009.38 1009.15 1008.99 1008.91 1008.94 1009.09 1009.38 1009.80 1010.34 1010.99 1011.74 1012.56 1013.43 1014.32 1015.22 1016.09 1016.93 1017.71 1018.44 1019.10 1019.70 1020.24 1020.72 1021.12 1021.46 1021.70 1021.86 1021.91 1021.84 1021.66 1021.37 1020.98 1020.51 1019.98 1019.43 1018.86
1008.64 1008.89 1009.06 1009.11 1009.04 1008.85 1008.58 1008.26 1007.92 1007.63 1007.42 1007.33 1007.39 1007.61 1008.00 1008.56 1009.28 1010.14 1011.10 1012.13 1013.20 1014.28 1015.35 1016.36 1017.31 1018.18 1018.96 1019.67 1020.28 1020.82 1021.28 1021.66 1021.96 1022.16 1022.28 1022.28 1022.18 1021.96 1021.63 1021.20 1020.70 1020.14 1019.55 1018.96
1007.67 1007.87 1007.98 1007.98 1007.86 1007.64 1007.33 1006.97 1006.61 1006.30 1006.09 1006.02 1006.12 1006.41 1006.91 1007.61 1008.49 1009.53 1010.68 1011.91 1013.17 1014.43 1015.65 1016.80 1017.85 1018.79 1019.62 1020.34 1020.95 1021.45 1021.87 1022.19 1022.43 1022.58 1022.64 1022.59 1022.44 1022.18 1021.82 1021.37 1020.84 1020.26 1019.64 1019.02
1006.65 1006.81 1006.89 1006.89 1006.78 1006.58 1006.29 1005.97 1005.64 1005.37 1005.20 1005.19 1005.36 1005.74 1006.34 1007.16 1008.17 1009.35 1010.66 1012.04 1013.46 1014.86 1016.19 1017.43 1018.55 1019.54 1020.38 1021.08 1021.65 1022.11 1022.45 1022.71 1022.87 1022.95 1022.95 1022.85 1022.66 1022.38 1021.99 1021.52 1020.98 1020.39 1019.76 1019.11
1005.74 1005.89 1006.00 1006.04 1005.99 1005.87 1005.67 1005.43 1005.20 1005.02 1004.95 1005.02 1005.28 1005.74 1006.43 1007.35 1008.46 1009.74 1011.14 1012.62 1014.13 1015.60 1017.00 1018.28 1019.42 1020.39 1021.21 1021.86 1022.36 1022.74 1023.01 1023.18 1023.26 1023.28 1023.22 1023.08 1022.86 1022.56 1022.17 1021.70 1021.16 1020.56 1019.92 1019.26
1005.12 1005.31 1005.48 1005.60 1005.66 1005.66 1005.59 1005.50 1005.40 1005.35 1005.40 1005.58 1005.93 1006.48 1007.24 1008.22 1009.39 1010.71 1012.15 1013.66 1015.18 1016.65 1018.04 1019.29 1020.39 1021.31 1022.05 1022.63 1023.04 1023.33 1023.51 1023.60 1023.61 1023.57 1023.47 1023.30 1023.07 1022.76 1022.38 1021.92 1021.39 1020.80 1020.16 1019.49
1004.93 1005.19 1005.46 1005.70 1005.89 1006.03 1006.12 1006.18 1006.25 1006.35 1006.52 1006.82 1007.27 1007.89 1008.71 1009.71 1010.88 1012.20 1013.61 1015.07 1016.53 1017.93 1019.24 1020.40 1021.40 1022.23 1022.87 1023.34 1023.66 1023.86 1023.95 1023.97 1023.93 1023.84 1023.71 1023.53 1023.30 1023.00 1022.64 1022.19 1021.68 1021.10 1020.47 1019.79
1005.26 1005.62 1005.99 1006.35 1006.68 1006.96 1007.21 1007.42 1007.64 1007.88 1008.19 1008.59 1009.12 1009.80 1010.64 1011.64 1012.78 1014.03 1015.36 1016.71 1018.05 1019.32 1020.49 1021.52 1022.38 1023.07 1023.60 1023.96 1024.18 1024.30 1024.33 1024.29 1024.22 1024.11 1023.96 1023.78 1023.56 1023.28 1022.92 1022.50 1022.00 1021.43 1020.81 1020.13
1006.11 1006.56 1007.03 1007.50 1007.93 1008.34 1008.71 1009.05 1009.39 1009.75 1010.16 1010.66 1011.25 1011.97 1012.81 1013.77 1014.84 1016.00 1017.20 1018.40 1019.58 1020.68 1021.67 1022.53 1023.24 1023.79 1024.19 1024.45 1024.59 1024.65 1024.63 1024.57 1024.48 1024.37 1024.23 1024.06 1023.85 1023.58 1023.24 1022.82 1022.33 1021.76 1021.14 1020.47
Thickness
5570 5573 5584 5596 5598 5601 5599 5600 5603 5613 5625 5624 5625 5634 5649 5658 5660 5664 5669 5673 5678 5686 5695 5699 5701 5703 5703 5703 5702 5701 5699 5698 5694 5691 5688 5687 5686 5686 5684 5683 5681 5679 5676 5674
5556 5570 5591 5589 5587 5587 5588 5590 5594 5603 5613 5614 5615 5624 5640 5649 5655 5662 5667 5671 5676 5682 5687 5692 5695 5697 5698 5699 5699 5698 5698 5696 5694 5692 5690 5688 5686 5684 5683 5681 5679 5677 5675 5673
5558 5578 5579 5575 5575 5576 5580 5584 5587 5589 5598 5602 5602 5608 5627 5643 5651 5658 5664 5670 5674 5678 5682 5687 5689 5692 5694 5695 5695 5696 5695 5694 5693 5690 5686 5683 5680 5680 5678 5678 5677 5676 5674 5671
5546 5562 5565 5565 5570 5573 5576 5586 5582 5580 5577 5579 5587 5587 5617 5631 5640 5650 5658 5663 5668 5673 5678 5682 5685 5687 5689 5692 5693 5692 5692 5691 5689 5686 5683 5680 5678 5678 5680 5678 5676 5674 5672 5669
5542 5552 5554 5559 5571 5572 5574 5579 5573 5571 5567 5567 5574 5574 5601 5621 5630 5644 5652 5658 5664 5669 5673 5677 5681 5683 5686 5687 5686 5686 5686 5685 5683 5681 5679 5676 5675 5677 5675 5673 5671 5670 5668 5667
5535 5545 5550 5559 5566 5565 5566 5563 5560 5558 5553 5556 5575 5566 5589 5611 5631 5641 5648 5654 5659 5664 5667 5671 5674 5676 5676 5678 5678 5678 5677 5677 5676 5674 5673 5671 5671 5670 5668 5667 5667 5666 5664 5663
5518 5527 5540 5551 5548 5549 5551 5547 5541 5540 5543 5555 5572 5563 5590 5614 5630 5638 5643 5648 5653 5655 5657 5660 5662 5664 5665 5666 5667 5667 5667 5667 5666 5666 5665 5665 5664 5663 5662 5662 5662 5661 5660 5660
5511 5517 5532 5541 5548 5549 5550 5548 5542 5538 5540 5546 5551 5561 5593 5612 5623 5631 5637 5641 5642 5644 5646 5649 5652 5653 5654 5655 5655 5655 5656 5655 5655 5654 5655 5655 5655 5655 5656 5656 5656 5656 5656 5656
5513 5519 5533 5539 5547 5546 5539 5539 5547 5535 5530 5532 5538 5555 5579 5602 5609 5617 5623 5626 5629 5631 5634 5636 5638 5639 5640 5641 5641 5642 5643 5642 5642 5642 5643 5643 5644 5645 5647 5648 5648 5649 5649 5649
5513 5508 5521 5530 5532 5535 5540 5539 5530 5526 5525 5526 5533 5544 5569 5594 5601 5607 5610 5614 5617 5619 5621 5622 5623 5624 5625 5626 5626 5627 5628 5629 5629 5630 5630 5631 5632 5634 5636 5637 5638 5639 5640 5640
5506 5502 5509 5514 5521 5529 5527 5527 5529 5528 5524 5525 5526 5545 5580 5590 5596 5598 5601 5603 5604 5605 5606 5606 5606 5607 5607 5608 5610 5611 5612 5613 5613 5615 5616 5617 5619 5621 5623 5625 5627 5628 5629 5630
5498 5497 5495 5507 5521 5530 5529 5531 5529 5524 5522 5526 5530 5548 5581 5583 5587 5589 5589 5589 5589 5590 5591 5591 5590 5590 5591 5591 5592 5594 5594 5595 5597 5599 5600 5602 5604 5606 5608 5611 5613 5615 5617 5619
5493 5487 5485 5490 5496 5506 5513 5522 5527 5526 5519 5516 5520 5541 5569 5569 5572 5575 5575 5574 5573 5574 5574 5574 5574 5574 5574 5574 5575 5576 5577 5578 5580 5582 5584 5586 5588 5590 5592 5595 5598 5600 5603 5605
5493 5481 5487 5497 5506 5510 5509 5514 5520 5517 5514 5515 5521 5539 5554 5556 5558 5560 5560 5560 5559 5559 5559 5557 5556 5557 5558 5558 5559 5560 5561 5562 5564 5565 5567 5569 5571 5573 5575 5578 5581 5584 5587 5590
5482 5474 5479 5491 5499 5501 5504 5508 5511 5512 5517 5515 5525 5533 5549 5550 5549 5548 5547 5546 5544 5544 5544 5544 5543 5543 5542 5543 5544 5544 5545 5546 5548 5549 5550 5552 5554 5556 5559 5562 5565 5568 5571 5573
5472 5468 5469 5473 5483 5488 5490 5497 5503 5506 5509 5510 5514 5523 5541 5540 5536 5534 5533 5532 5530 5530 5530 5530 5529 5528 5528 5528 5528 5529 5529 5530 5532 5533 5533 5535 5537 5540 5542 5545 5548 5551 5554 5557
5462 5460 5459 5461 5470 5470 5475 5492 5497 5500 5505 5507 5510 5526 5530 5525 5524 5523 5521 5519 5517 5516 5515 5514 5513 5513 5513 5512 5512 5512 5513 5514 5515 5516 5517 5518 5520 5523 5525 5528 5531 5534 5537 5540
5457 5452 5448 5448 5450 5461 5489 5499 5501 5500 5502 5505 5510 5515 5517 5517 5509 5505 5505 5504 5503 5502 5499 5497 5497 5496 5496 5496 5496 5496 5496 5497 5498 5499 5500 5501 5503 5505 5508 5511 5513 5516 5519 5522
5457 5450 5438 5438 5445 5451 5472 5485 5492 5493 5494 5498 5500 5503 5501 5496 5490 5486 5489 5490 5488 5486 5484 5482 5481 5480 5479 5479 5479 5479 5479 5480 5480 5481 5482 5483 5485 5488 5490 5494 5496 5499 5502 5505
5446 5448 5436 5430 5437 5441 5481 5488 5486 5486 5481 5493 5494 5492 5487 5487 5486 5487 5478 5474 5470 5468 5466 5465 5463 5462 5461 5461 5461 5462 5462 5462 5462 5463 5464 5465 5467 5470 5473 5476 5479 5482 5484 5487
5436 5435 5432 5427 5429 5441 5467 5471 5475 5469 5486 5486 5484 5483 5478 5478 5479 5472 5462 5455 5452 5450 5449 5448 5446 5445 5444 5443 5444 5444 5443 5443 5443 5444 5446 5448 5450 5452 5456 5459 5462 5465 5467 5470
5437 5432 5427 5424 5427 5443 5456 5456 5465 5469 5465 5465 5464 5463 5460 5455 5451 5447 5442 5438 5434 5432 5431 5431 5429 5427 5425 5425 5425 5425 5424 5423 5424 5426 5429 5431 5433 5435 5438 5441 5444 5447 5449 5452
5430 5435 5436 5440 5441 5435 5431 5436 5438 5442 5444 5443 5443 5443 5441 5437 5431 5427 5423 5420 5418 5416 5414 5413 5411 5409 5406 5405 5405 5405 5404 5405 5406 5408 5411 5413 5415 5417 5419 5421 5424 5427 5429 5432
5414 5418 5421 5419 5418 5412 5410 5412 5413 5417 5420 5421 5423 5424 5423 5419 5414 5410 5407 5404 5401 5397 5395 5394 5393 5391 5388 5386 5385 5385 5385 5387 5388 5391 5394 5396 5398 5400 5401 5403 5405 5407 5409 5410
5403 5405 5407 5408 5401 5395 5395 5394 5396 5398 5400 5401 5401 5403 5403 5401 5397 5393 5390 5386 5382 5380 5377 5376 5375 5373 5369 5367 5366 5366 5367 5369 5371 5373 5375 5377 5379 5380 5382 5383 5385 5387 5389 5389
5378 5387 5401 5407 5395 5393 5389 5380 5380 5381 5382 5382 5382 5380 5379 5380 5378 5373 5368 5365 5363 5361 5358 5356 5354 5352 5350 5349 5348 5348 5348 5349 5351 5354 5356 5357 5358 5360 5362 5363 5365 5367 5369 5371